Location: *
(41.3833°S, 177.8333°W)
Time: 03:26:14
(UTC+00:00)

Cosmos 1066 Rocket - Pass Details

Date: 01 April 2020
Orbit: 798 x 895 km, 81.2° (Epoch: 31 May)

Event Time Altitude Azimuth Distance (km) Brightness Sun altitude
Rises 16:22:53 0° 194° (SSW) 3,379 7.3 -20.4°
Reaches altitude 10° 16:25:18 10° 196° (SSW) 2,452 6.6 -20.0°
Maximum altitude 16:30:46 62° 276° (W) 945 4.1 -19.0°
Drops below altitude 10° 16:36:19 10° 355° (N) 2,484 6.5 -18.0°
Sets 16:38:47 0° 358° (N) 3,427 7.3 -17.5°
